Weather History for Moffett NAS, CA

Change the Weather History Date:

Thursday, February 21, 2013

  Actual Average Record
Temperature  
Mean Temperature 50 °F 54 °F  
Max Temperature 60 °F 63 °F 78 °F (1985)
Min Temperature 39 °F 46 °F 32 °F (1955)
Degree Days  
Heating Degree Days 15    
Month to date heating degree days 302  
Since 1 July heating degree days 1588  
Cooling Degree Days 0    
Month to date cooling degree days 0  
Year to date cooling degree days 0  
Moisture  
Dew Point 36 °F    
Average Humidity 64    
Maximum Humidity 92    
Minimum Humidity 36    
Precipitation  
Precipitation 0.00 in 0.12 in 0.34 in (1979)
Month to date precipitation 0.42 2.28  
Year to date precipitation 0.72 5.03  
Since 1 July precipitation 8.49 10.08  
Sea Level Pressure  
Sea Level Pressure 30.14 in    
Wind  
Wind Speed 5 mph (WNW)    
Max Wind Speed 14 mph    
Max Gust Speed 17 mph    
Visibility 10 miles    
Events      
T = Trace of Precipitation, MM = Missing Value Source: NWS Daily Summary

Daily Weather History Graph

Daily Weather History Graph

Search for Another Location

Airport:

Trip Planner

Search our weather history database for the weather conditions in past years. The results will help you decide how hot, cold, wet, or windy it might be!

Date:

Astronomy

Feb. 21, 2013 Rise Set
Actual Time 6:49 AM PST 5:54 PM PST
Civil Twilight 6:23 AM PST 6:20 PM PST
Nautical Twilight 5:52 AM PST 6:51 PM PST
Astronomical Twilight 5:22 AM PST 7:21 PM PST
Moon 2:17 PM PST (2/21) 3:54 AM PST (2/21)
Length of Visible Light 11h 57m
Length of Day
11h 04m
Waxing Gibbous, 84% of the Moon is Illuminated
Feb 21
Waxing Gibbous
Feb 25
Full
Mar 4
Last Quarter
Mar 11
New
Mar 19
First Quarter

Hourly Weather History & Observations

Time (PST) Temp. Windchill Dew Point Humidity Pressure Visibility Wind Dir Wind Speed Gust Speed Precip Events Conditions
12:56 AM 43.0 °F 40.3 °F 37.0 °F 80% 30.10 in 10.0 mi South 4.6 mph - N/A   Clear
1:56 AM 42.1 °F - 37.0 °F 82% 30.11 in 10.0 mi Calm Calm - N/A   Clear
2:56 AM 41.0 °F - 37.0 °F 86% 30.09 in 10.0 mi Calm Calm - N/A   Clear
3:56 AM 41.0 °F 39.0 °F 36.0 °F 82% 30.09 in 10.0 mi South 3.5 mph - N/A   Clear
4:56 AM 39.9 °F - 37.0 °F 89% 30.10 in 10.0 mi Calm Calm - N/A   Clear
5:56 AM 41.0 °F - 37.9 °F 89% 30.11 in 10.0 mi Calm Calm - N/A   Clear
6:56 AM 43.0 °F 40.3 °F 39.0 °F 86% 30.12 in 10.0 mi WSW 4.6 mph - N/A   Partly Cloudy
7:56 AM 46.0 °F - 39.9 °F 79% 30.14 in 10.0 mi Calm Calm - N/A   Clear
8:56 AM 48.9 °F - 39.0 °F 69% 30.16 in 10.0 mi NNW 8.1 mph - N/A   Clear
9:56 AM 50.0 °F - 39.0 °F 66% 30.17 in 10.0 mi NW 10.4 mph - N/A   Clear
10:56 AM 53.1 °F - 37.0 °F 55% 30.18 in 10.0 mi NW 10.4 mph - N/A   Clear
11:56 AM 54.0 °F - 35.1 °F 49% 30.17 in 10.0 mi WNW 9.2 mph - N/A   Clear
12:56 PM 57.0 °F - 35.1 °F 44% 30.15 in 10.0 mi NNW 6.9 mph - N/A   Clear
1:56 PM 57.9 °F - 32.0 °F 37% 30.13 in 10.0 mi WNW 9.2 mph - N/A   Clear
2:56 PM 59.0 °F - 33.1 °F 38% 30.13 in 10.0 mi WNW 6.9 mph 17.3 mph N/A   Clear
3:56 PM 59.0 °F - 32.0 °F 36% 30.13 in 10.0 mi NW 10.4 mph 16.1 mph N/A   Clear
4:56 PM 57.9 °F - 33.1 °F 39% 30.13 in 10.0 mi NNW 10.4 mph - N/A   Clear
5:56 PM 55.0 °F - 30.9 °F 40% 30.14 in 10.0 mi WNW 6.9 mph - N/A   Clear
6:56 PM 53.1 °F - 33.1 °F 47% 30.15 in 10.0 mi Calm Calm - N/A   Clear
7:56 PM 46.9 °F - 36.0 °F 66% 30.17 in 10.0 mi NNE 5.8 mph - N/A   Clear
8:56 PM 48.0 °F - 39.0 °F 71% 30.17 in 10.0 mi Calm Calm - N/A   Clear
9:56 PM 46.9 °F - 37.9 °F 71% 30.19 in 10.0 mi Calm Calm - N/A   Clear
10:56 PM 46.9 °F - 36.0 °F 66% 30.20 in 10.0 mi SSW 3.5 mph - N/A   Clear
11:56 PM 45.0 °F 43.5 °F 33.1 °F 63% 30.20 in 10.0 mi South 3.5 mph - N/A   Clear